This is the latest recevied weather packets stored in our database for station/object KI4HRG. If no packets are shown the sender has not sent any weather packets the latest 10 day(s).
| Time | Temp. | Humidity | Pressure | Rain* | Wind** | Luminosity | Snow |
|---|---|---|---|---|---|---|---|
| 1787920987 | 24.44° C | 99% | 1017.4 hPa | 0 mm | - | 83 W/m² | - |
| 1787920682 | 23.89° C | 99% | 1017.4 hPa | 0 mm | - | 68 W/m² | - |
| 1787920381 | 23.89° C | 99% | 1017.4 hPa | 0 mm | - | 71 W/m² | - |
| 1787920078 | 23.89° C | 99% | 1017.5 hPa | 0 mm | - | 64 W/m² | - |
| 1787919774 | 23.33° C | 99% | 1017.3 hPa | 0 mm | - | 58 W/m² | - |
| 1787919473 | 23.33° C | 99% | 1017.4 hPa | 0 mm | - | 52 W/m² | - |
| 1787919169 | 23.33° C | 99% | 1017.3 hPa | 0 mm | - | 42 W/m² | - |
| 1787918868 | 22.78° C | 99% | 1017.1 hPa | 0 mm | - | 37 W/m² | - |
| 1787918564 | 22.78° C | 99% | 1017.1 hPa | 0 mm | - | 30 W/m² | - |
| 1787918261 | 22.78° C | 99% | 1017 hPa | 0 mm | - | 26 W/m² | - |
| 1787917956 | 22.78° C | 99% | 1016.9 hPa | 0 mm | - | 23 W/m² | - |
| 1787917651 | 22.78° C | 99% | 1016.8 hPa | 0 mm | - | 19 W/m² | - |
| 1787917342 | 22.78° C | 99% | 1016.8 hPa | 0 mm | - | 14 W/m² | - |
| 1787917041 | 22.78° C | 99% | 1016.7 hPa | 0 mm | - | 11 W/m² | - |
| 1787916736 | 22.78° C | 99% | 1016.5 hPa | 0 mm | - | 7 W/m² | - |
| 1787916431 | 22.78° C | 99% | 1016.4 hPa | 0 mm | - | 5 W/m² | - |
| 1787916126 | 22.78° C | 99% | 1016.4 hPa | 0 mm | - | 2 W/m² | - |
| 1787915821 | 22.78° C | 99% | 1016.5 hPa | 0 mm | - | 0 W/m² | - |
| 1787915516 | 22.78° C | 99% | 1016.4 hPa | 0 mm | - | 0 W/m² | - |
| 1787915211 | 22.78° C | 99% | 1016.6 hPa | 0 mm | - | 0 W/m² | - |
| 1787914910 | 22.78° C | 99% | 1016.3 hPa | 0 mm | - | 0 W/m² | - |
| 1787914609 | 22.78° C | 99% | 1016.3 hPa | 0 mm | - | 0 W/m² | - |
| 1787914304 | 22.78° C | 99% | 1016.3 hPa | 0 mm | - | 0 W/m² | - |
| 1787914004 | 22.78° C | 99% | 1016.2 hPa | 0 mm | - | 0 W/m² | - |
| 1787913703 | 22.78° C | 99% | 1016.2 hPa | 0 mm | - | 0 W/m² | - |
* Rain latest hour (hover to see other rain measurements)
** Current wind speed in m/s (hover to see current wind gust speed)